Volver al catálogo

STARLINK-34600

ActivoComunicacionesVLEO
NORAD 64699·PAYLOAD·🇺🇸 United States

Lanzado Jun 28, 2025 desde Vandenberg Space Force Base

Loading…

Próximos Pases (próximas 24 horas)

TLE

ActualizadoSource: CelesTrak SupGP

Época: Sep 15, 2026, 03:55 UTC

1 64699C 25142D   26258.16368056 -.00023203  00000+0 -80719-3 0  2583
2 64699  70.0011 194.8133 0003057 275.1735 294.8295 15.29590022    14

Sigue STARLINK-34600 en tiempo real con AllMySat

Download on the App Store